Weather History for Detroit Metro, MI

Change the Weather History Date:

Sunday, March 10, 2013

  Actual Average Record
Temperature  
Mean Temperature 51 °F 35 °F  
Max Temperature 65 °F 43 °F 70 °F (1925)
Min Temperature 36 °F 27 °F 4 °F (1877)
Degree Days  
Heating Degree Days 14 30  
Month to date heating degree days 319 318  
Since 1 July heating degree days 4604 4871  
Cooling Degree Days 0 0  
Month to date cooling degree days 0 0  
Year to date cooling degree days 0 0  
Moisture  
Dew Point 36 °F    
Average Humidity 58    
Maximum Humidity 76    
Minimum Humidity 39    
Precipitation  
Precipitation T in 0.07 in 0.97 in (2009)
Month to date precipitation 0.01 0.71  
Year to date precipitation 6.29 4.69  
Snow  
Snow 0.00 in 0.20 in 7.50 in (1993)
Month to date snowfall 0.2 2.9  
Since 1 July snowfall 44.7 36.8  
Snow Depth 0.00 in    
Sea Level Pressure  
Sea Level Pressure 29.94 in    
Wind  
Wind Speed 10 mph (SSE)    
Max Wind Speed 23 mph    
Max Gust Speed 28 mph    
Visibility 10 miles    
Events Rain    
T = Trace of Precipitation, MM = Missing Value Source: NWS Daily Summary

Daily Weather History Graph

Daily Weather History Graph

Search for Another Location

Airport:

Trip Planner

Search our weather history database for the weather conditions in past years. The results will help you decide how hot, cold, wet, or windy it might be!

Date:

Astronomy

Mar. 10, 2013 Rise Set
Actual Time 7:53 AM EDT 7:34 PM EDT
Civil Twilight 7:25 AM EDT 8:02 PM EDT
Nautical Twilight 6:52 AM EDT 8:34 PM EDT
Astronomical Twilight 6:20 AM EDT 9:07 PM EDT
Moon 6:53 AM EDT (3/10) 6:40 PM EDT (3/10)
Length of Visible Light 12h 36m
Length of Day
11h 41m
Waning Crescent, 2% of the Moon is Illuminated
Mar 10
Waning Crescent
Mar 11
New
Mar 19
First Quarter
Mar 27
Full
Apr 3
Last Quarter

Hourly Weather History & Observations

Time (EDT) Temp. Windchill Dew Point Humidity Pressure Visibility Wind Dir Wind Speed Gust Speed Precip Events Conditions
12:53 AM 37.9 °F 35.5 °F 30.9 °F 76% 30.06 in 10.0 mi ESE 3.5 mph - N/A   Mostly Cloudy
1:53 AM 37.9 °F - 30.9 °F 76% 30.04 in 10.0 mi Calm Calm - N/A   Mostly Cloudy
3:53 AM 39.9 °F - 30.9 °F 70% 30.01 in 10.0 mi Calm Calm - N/A   Overcast
4:53 AM 37.0 °F - 30.0 °F 76% 30.00 in 10.0 mi Calm Calm - N/A   Overcast
5:53 AM 39.0 °F - 30.0 °F 70% 30.00 in 10.0 mi Calm Calm - N/A   Overcast
6:53 AM 42.1 °F 39.2 °F 30.9 °F 65% 29.99 in 10.0 mi SSE 4.6 mph - N/A   Overcast
7:53 AM 42.8 °F 38.6 °F 33.8 °F 70% 29.97 in 10.0 mi South 6.9 mph - N/A   Overcast
8:53 AM 43.0 °F 38.8 °F 33.1 °F 68% 30.00 in 10.0 mi South 6.9 mph - N/A   Scattered Clouds
9:53 AM 50.0 °F - 35.1 °F 57% 29.99 in 10.0 mi South 10.4 mph - N/A   Scattered Clouds
10:53 AM 55.0 °F - 35.1 °F 47% 29.98 in 10.0 mi South 18.4 mph 27.6 mph N/A   Mostly Cloudy
11:53 AM 59.0 °F - 37.0 °F 44% 29.96 in 10.0 mi South 18.4 mph - N/A   Mostly Cloudy
12:53 PM 59.0 °F - 36.0 °F 42% 29.95 in 10.0 mi South 21.9 mph 26.5 mph N/A   Overcast
1:53 PM 62.1 °F - 37.9 °F 41% 29.94 in 10.0 mi South 19.6 mph - N/A   Mostly Cloudy
2:53 PM 63.0 °F - 39.9 °F 43% 29.91 in 10.0 mi South 13.8 mph - N/A   Mostly Cloudy
3:53 PM 64.9 °F - 42.1 °F 43% 29.91 in 10.0 mi South 15.0 mph - N/A   Mostly Cloudy
4:53 PM 64.9 °F - 43.0 °F 45% 29.89 in 10.0 mi South 15.0 mph - N/A   Mostly Cloudy
5:53 PM 64.9 °F - 43.0 °F 45% 29.89 in 10.0 mi SSE 16.1 mph - N/A   Overcast
6:53 PM 60.1 °F - 41.0 °F 49% 29.88 in 10.0 mi SSE 10.4 mph - N/A   Mostly Cloudy
7:53 PM 57.0 °F - 39.0 °F 51% 29.87 in 10.0 mi SE 9.2 mph - N/A   Mostly Cloudy
8:53 PM 55.0 °F - 37.0 °F 51% 29.88 in 10.0 mi SSE 10.4 mph - N/A   Mostly Cloudy
9:53 PM 54.0 °F - 37.0 °F 53% 29.86 in 10.0 mi SSE 8.1 mph - N/A   Mostly Cloudy
10:53 PM 57.0 °F - 36.0 °F 45% 29.83 in 10.0 mi ESE 6.9 mph - N/A   Overcast
11:53 PM 55.0 °F - 36.0 °F 49% 29.82 in 10.0 mi SE 5.8 mph - N/A   Overcast
12:53 AM 53.1 °F - 39.9 °F 61% 29.82 in 10.0 mi South 9.2 mph - 0.00 in Rain Light Rain